| time (UTC) | temp F | wind direction | speed knots | gust knots | rain 1hr in | rain 24hr in | rain mn in | humidity % | barometer mb |
| 20260507130052 | 49 | 331 | 8.7 | 12.2 | 0.00 | 0.00 | 0.00 | 97 | 1008.3 |
| 20260507124551 | 49 | 311 | 11.3 | 15.6 | 0.00 | 0.00 | 0.00 | 96 | 1008.1 |
| 20260507123049 | 49 | 327 | 9.6 | 15.6 | 0.00 | 0.00 | 0.00 | 97 | 1007.9 |
| 20260507121546 | 49 | 339 | 9.6 | 14.8 | 0.00 | 0.00 | 0.00 | 98 | 1007.8 |
| 20260507120053 | 49 | 345 | 7.8 | 13.0 | 0.00 | 0.00 | 0.00 | 98 | 1008.1 |
| 20260507114545 | 49 | 347 | 9.6 | 13.9 | 0.00 | 0.00 | 0.00 | 98 | 1008.4 |
| 20260507113048 | 49 | 322 | 7.0 | 13.0 | 0.00 | 0.00 | 0.00 | 98 | 1007.7 |
| 20260507111540 | 50 | 322 | 9.6 | 18.2 | 0.00 | 0.00 | 0.00 | 98 | 1007.7 |
| 20260507110038 | 52 | 296 | 9.6 | 15.6 | 0.00 | 0.00 | 0.00 | 99 | 1007.5 |
| 20260507104536 | 52 | 308 | 5.2 | 9.6 | 0.00 | 0.00 | 0.00 | 99 | 1006.8 |
| 20260507103036 | 52 | 272 | 5.2 | 8.7 | 0.00 | 0.00 | 0.00 | 99 | 1006.7 |
| 20260507101535 | 52 | 260 | 4.3 | 9.6 | 0.00 | 0.00 | 0.00 | 99 | 1006.9 |
| 20260507100037 | 52 | 262 | 10.4 | 16.5 | 0.00 | 0.00 | 0.00 | 99 | 1007.3 |
| 20260507094534 | 52 | 252 | 5.2 | 9.6 | 0.00 | 0.00 | 0.00 | 99 | 1006.4 |
| 20260507093033 | 52 | 273 | 6.1 | 9.6 | 0.00 | 0.00 | 0.00 | 99 | 1006.5 |
| 20260507091531 | 51 | 253 | 8.7 | 13.9 | 0.00 | 0.00 | 0.00 | 99 | 1006.7 |
| 20260507090029 | 51 | 252 | 6.1 | 13.0 | 0.00 | 0.00 | 0.00 | 99 | 1006.5 |
| 20260507084528 | 51 | 238 | 7.0 | 14.8 | 0.00 | 0.00 | 0.00 | 99 | 1006.0 |
| 20260507083025 | 51 | 247 | 7.0 | 13.9 | 0.00 | 0.00 | 0.00 | 99 | 1006.3 |
| 20260507081531 | 52 | 259 | 7.8 | 13.9 | 0.00 | 0.00 | 0.00 | 99 | 1006.5 |
| 20260507080022 | 52 | 256 | 9.6 | 14.8 | 0.00 | 0.00 | 0.00 | 99 | 1006.4 |
| 20260507074528 | 52 | 220 | 8.7 | 13.9 | 0.00 | 0.00 | 0.00 | 99 | 1006.6 |
| 20260507073137 | 52 | 220 | 9.6 | 16.5 | 0.00 | 0.00 | 0.00 | 99 | 1007.1 |
| 20260507071517 | 52 | 231 | 12.2 | 18.2 | 0.00 | 0.00 | 0.00 | 98 | 1007.2 |
| 20260507070014 | 52 | 258 | 13.9 | 20.0 | 0.00 | 0.00 | 0.00 | 98 | 1007.2 |
| 20260507064511 | 52 | 266 | 9.6 | 19.1 | 0.00 | 0.00 | 0.00 | 98 | 1007.2 |
| 20260507063008 | 52 | 181 | 10.4 | 19.1 | 0.00 | 0.00 | 0.00 | 98 | 1006.9 |
| 20260507061509 | 52 | 227 | 10.4 | 19.1 | 0.00 | 0.00 | 0.00 | 98 | 1006.9 |
| 20260507060005 | 52 | 247 | 11.3 | 20.9 | 0.00 | 0.00 | 0.00 | 98 | 1007.1 |
| 20260507054501 | 53 | 249 | 13.0 | 20.9 | 0.00 | 0.00 | 0.00 | 98 | 1007.4 |
| 20260507053059 | 53 | 250 | 10.4 | 23.5 | 0.00 | 0.00 | 0.00 | 98 | 1007.7 |
| 20260507051556 | 53 | 235 | 13.9 | 22.6 | 0.00 | 0.00 | 0.00 | 98 | 1007.7 |
| 20260507050057 | 53 | 216 | 14.8 | 26.1 | 0.00 | 0.00 | 0.00 | 98 | 1007.9 |
| 20260507044552 | 53 | 238 | 12.2 | 20.9 | 0.00 | 0.00 | 0.00 | 98 | 1008.1 |
| 20260507043049 | 54 | 252 | 13.0 | 20.0 | 0.00 | 0.00 | 0.00 | 98 | 1008.2 |
| 20260507041547 | 54 | 231 | 13.0 | 25.2 | 0.00 | 0.00 | 0.00 | 98 | 1008.4 |
| 20260507040041 | 54 | 212 | 13.0 | 25.2 | 0.00 | 0.00 | 0.00 | 98 | 1008.4 |
| 20260507034546 | 54 | 214 | 13.0 | 25.2 | 0.00 | 0.00 | 0.00 | 98 | 1008.6 |
| 20260507033057 | 54 | 206 | 12.2 | 24.3 | 0.00 | 0.00 | 0.00 | 98 | 1008.6 |
| 20260507031538 | 54 | 207 | 13.0 | 20.9 | 0.00 | 0.00 | 0.00 | 98 | 1008.7 |
| 20260507030038 | 54 | 212 | 14.8 | 26.9 | 0.00 | 0.00 | 0.00 | 98 | 1008.7 |
| 20260507024541 | 55 | 241 | 14.8 | 31.3 | 0.00 | 0.00 | 0.00 | 98 | 1008.8 |
| 20260507023034 | 54 | 217 | 14.8 | 24.3 | 0.00 | 0.00 | 0.00 | 98 | 1009.0 |
| 20260507021533 | 54 | 231 | 9.6 | 24.3 | 0.00 | 0.00 | 0.00 | 97 | 1009.0 |
| 20260507020033 | 54 | 211 | 17.4 | 31.3 | 0.00 | 0.00 | 0.00 | 97 | 1009.4 |
| 20260507014531 | 54 | 227 | 13.9 | 31.3 | 0.00 | 0.00 | 0.00 | 97 | 1009.7 |
| 20260507013036 | 54 | 203 | 20.0 | 28.7 | 0.00 | 0.00 | 0.00 | 98 | 1009.4 |
| 20260507011533 | 53 | 240 | 15.6 | 29.5 | 0.00 | 0.00 | 0.00 | 97 | 1009.6 |
| 20260507010130 | 54 | 183 | 16.5 | 26.9 | 0.00 | 0.00 | 0.00 | 97 | 1009.5 |
| 20260507004529 | 54 | 197 | 17.4 | 26.1 | 0.00 | 0.00 | 0.00 | 97 | 1009.6 |
| 20260507003027 | 54 | 185 | 14.8 | 26.9 | 0.00 | 0.00 | 0.00 | 97 | 1009.5 |
| 20260507001529 | 53 | 180 | 15.6 | 27.8 | 0.00 | 0.00 | 0.00 | 96 | 1009.9 |
| 20260507000028 | 54 | 179 | 17.4 | 26.9 | 0.00 | 0.00 | 0.00 | 96 | 1010.2 |
| 20260506234542 | 54 | 200 | 16.5 | 23.5 | 0.00 | 0.00 | 0.00 | 96 | 1010.3 |
| 20260506233023 | 54 | 188 | 14.8 | 22.6 | 0.00 | 0.00 | 0.00 | 95 | 1010.1 |
| 20260506231521 | 53 | 203 | 13.0 | 25.2 | 0.00 | 0.00 | 0.00 | 94 | 1010.3 |
| 20260506230020 | 54 | 183 | 15.6 | 25.2 | 0.00 | 0.00 | 0.00 | 92 | 1010.5 |
| 20260506224526 | 54 | 192 | 14.8 | 24.3 | 0.00 | 0.00 | 0.00 | 92 | 1010.7 |
| 20260506223018 | 54 | 172 | 13.0 | 23.5 | 0.00 | 0.00 | 0.00 | 92 | 1010.7 |
| 20260506221517 | 55 | 175 | 14.8 | 23.5 | 0.00 | 0.00 | 0.00 | 91 | 1010.7 |
| 20260506220029 | 55 | 193 | 14.8 | 23.5 | 0.00 | 0.00 | 0.00 | 91 | 1010.8 |
| 20260506214515 | 55 | 191 | 15.6 | 25.2 | 0.00 | 0.00 | 0.00 | 91 | 1010.8 |
| 20260506213012 | 54 | 182 | 14.8 | 23.5 | 0.00 | 0.00 | 0.00 | 91 | 1010.9 |
| 20260506211518 | 55 | 176 | 13.0 | 24.3 | 0.00 | 0.00 | 0.00 | 90 | 1011.1 |
| 20260506210010 | 55 | 170 | 15.6 | 23.5 | 0.00 | 0.00 | 0.00 | 90 | 1011.3 |
| 20260506204509 | 56 | 182 | 15.6 | 26.9 | 0.00 | 0.00 | 0.00 | 90 | 1011.4 |
| 20260506203007 | 55 | 219 | 13.9 | 27.8 | 0.00 | 0.00 | 0.00 | 90 | 1011.2 |
| 20260506201506 | 55 | 174 | 12.2 | 23.5 | 0.00 | 0.00 | 0.00 | 90 | 1011.4 |
| 20260506200005 | 55 | 138 | 15.6 | 26.1 | 0.00 | 0.00 | 0.00 | 90 | 1011.7 |
| 20260506194504 | 55 | 175 | 14.8 | 22.6 | 0.00 | 0.00 | 0.00 | 91 | 1011.7 |
| 20260506193002 | 55 | 193 | 16.5 | 25.2 | 0.00 | 0.00 | 0.00 | 89 | 1011.7 |
| 20260506191501 | 55 | 204 | 13.0 | 25.2 | 0.00 | 0.00 | 0.00 | 90 | 1012.0 |
| 20260506190059 | 55 | 184 | 17.4 | 27.8 | 0.00 | 0.00 | 0.00 | 89 | 1012.3 |
| 20260506184557 | 56 | 182 | 18.2 | 28.7 | 0.00 | 0.00 | 0.00 | 88 | 1012.5 |
| 20260506183101 | 56 | 182 | 17.4 | 30.4 | 0.00 | 0.00 | 0.00 | 87 | 1012.8 |
| 20260506181613 | 56 | 178 | 19.1 | 30.4 | 0.00 | 0.00 | 0.00 | 87 | 1013.1 |
| 20260506180052 | 58 | 212 | 16.5 | 26.9 | 0.00 | 0.00 | 0.00 | 86 | 1013.0 |
| 20260506174551 | 59 | 191 | 16.5 | 30.4 | 0.00 | 0.00 | 0.00 | 86 | 1013.1 |
| 20260506173117 | 56 | 195 | 16.5 | 28.7 | 0.00 | 0.00 | 0.00 | 88 | 1013.4 |
| 20260506171554 | 57 | 164 | 18.2 | 31.3 | 0.00 | 0.00 | 0.00 | 87 | 1013.4 |
| 20260506170054 | 58 | 223 | 17.4 | 27.8 | 0.00 | 0.00 | 0.00 | 86 | 1013.8 |
| 20260506164545 | 58 | 228 | 15.6 | 29.5 | 0.00 | 0.00 | 0.00 | 86 | 1014.0 |
| 20260506163043 | 58 | 160 | 14.8 | 28.7 | 0.00 | 0.00 | 0.00 | 85 | 1014.1 |
| 20260506161541 | 58 | 187 | 16.5 | 26.9 | 0.00 | 0.00 | 0.00 | 87 | 1014.3 |
| 20260506160046 | 57 | 175 | 19.1 | 33.0 | 0.00 | 0.00 | 0.00 | 87 | 1014.6 |
| 20260506154540 | 57 | 209 | 16.5 | 27.8 | 0.00 | 0.00 | 0.00 | 88 | 1014.7 |
| 20260506153038 | 57 | 200 | 15.6 | 28.7 | 0.00 | 0.00 | 0.00 | 87 | 1014.5 |
| 20260506151539 | 57 | 193 | 17.4 | 29.5 | 0.00 | 0.00 | 0.00 | 87 | 1014.5 |
| 20260506150037 | 57 | 197 | 19.1 | 30.4 | 0.00 | 0.00 | 0.00 | 87 | 1014.4 |
| 20260506144537 | 57 | 193 | 16.5 | 26.9 | 0.00 | 0.00 | 0.00 | 86 | 1014.5 |
| 20260506143036 | 57 | 202 | 20.0 | 31.3 | 0.00 | 0.00 | 0.00 | 88 | 1014.8 |
| 20260506141533 | 57 | 223 | 17.4 | 29.5 | 0.00 | 0.00 | 0.00 | 87 | 1014.8 |
| 20260506140035 | 58 | 208 | 14.8 | 26.1 | 0.00 | 0.00 | 0.00 | 86 | 1014.9 |
| 20260506134530 | 57 | 175 | 16.5 | 28.7 | 0.00 | 0.00 | 0.00 | 88 | 1014.7 |
| 20260506133028 | 58 | 181 | 15.6 | 24.3 | 0.00 | 0.00 | 0.00 | 87 | 1014.6 |
| 20260506131542 | 57 | 208 | 16.5 | 29.5 | 0.00 | 0.00 | 0.00 | 88 | 1014.6 |